EW7351 Weather Reports


Display with metric or nautical units.
time (UTC)temp
F
wind
direction
speed
MPH
gust
MPH
rain 1hr
in
rain 24hr
in
rain mn
in
humidity
%
barometer
mb
20260507141631 60 325 1.0 3.0 0.00 0.00 0.00 72 1018.9
20260507141120 60 321 1.0 4.0 0.00 0.00 0.00 71 1019.0
20260507140621 60 326 1.0 4.0 0.00 0.00 0.00 71 1019.2
20260507140116 60 53 0.0 2.0 0.00 0.00 0.00 74 1019.2
20260507135616 60 259 0.0 1.0 0.00 0.00 0.00 76 1019.3
20260507135053 59 343 0.0 1.0 0.00 0.00 0.00 77 1019.3
20260507134549 59 329 0.0 0.0 0.00 0.00 0.00 81 1019.3
20260507134046 58 329 0.0 2.0 0.00 0.00 0.00 81 1019.3
20260507133545 57 343 0.0 2.0 0.00 0.00 0.00 81 1019.4
20260507133044 57 343 0.0 2.0 0.00 0.00 0.00 80 1019.3
20260507132520 57 343 0.0 3.0 0.00 0.00 0.00 81 1019.3
20260507131956 56 343 0.0 3.0 0.00 0.00 0.00 81 1019.3
20260507131437 56 351 0.0 3.0 0.00 0.00 0.00 82 1019.3
20260507130924 56 346 0.0 0.0 0.00 0.00 0.00 84 1019.2
20260507130423 56 346 0.0 0.0 0.00 0.00 0.00 86 1019.2
20260507125921 55 346 0.0 0.0 0.00 0.00 0.00 87 1019.2
20260507125422 55 346 0.0 0.0 0.00 0.00 0.00 86 1019.1
20260507124856 55 271 0.0 0.0 0.00 0.00 0.00 88 1019.0
20260507124345 54 271 0.0 0.0 0.00 0.00 0.00 88 1018.9
20260507123846 53 271 0.0 0.0 0.00 0.00 0.00 88 1018.9
20260507123348 53 261 0.0 0.0 0.00 0.00 0.00 89 1019.0
20260507122826 52 338 0.0 0.0 0.00 0.00 0.00 89 1018.9
20260507122306 52 338 0.0 0.0 0.00 0.00 0.00 89 1018.9
20260507121736 52 338 0.0 0.0 0.00 0.00 0.00 89 1018.9
20260507121236 51 338 0.0 0.0 0.00 0.00 0.00 89 1018.8
20260507120715 51 338 0.0 0.0 0.00 0.00 0.00 88 1018.8
20260507120413 51 338 0.0 0.0 0.00 0.00 0.00 88 1018.6
20260507115654 51 338 0.0 0.0 0.00 0.00 0.00 88 1018.5
20260507115154 51 338 0.0 0.0 0.00 0.00 0.00 88 1018.4
20260507114919 51 338 0.0 0.0 0.00 0.00 0.00 88 1018.5
20260507114153 51 338 0.0 0.0 0.00 0.00 0.00 88 1018.4
20260507113915 51 338 0.0 0.0 0.00 0.00 0.00 88 1018.3
20260507113133 51 338 0.0 0.0 0.00 0.00 0.00 88 1018.3
20260507112610 51 338 0.0 0.0 0.00 0.00 0.00 88 1018.3
20260507112046 51 338 0.0 0.0 0.00 0.00 0.00 88 1018.3
20260507111546 51 338 0.0 0.0 0.00 0.00 0.00 88 1018.3
20260507111034 51 338 0.0 1.0 0.00 0.00 0.00 88 1018.2
20260507110534 51 338 0.0 1.0 0.00 0.00 0.00 88 1017.8
20260507110032 51 338 0.0 1.0 0.00 0.00 0.00 87 1017.6
20260507105529 51 338 0.0 1.0 0.00 0.00 0.00 87 1017.5
20260507105028 51 338 0.0 0.0 0.00 0.00 0.00 87 1017.3
20260507104726 51 338 0.0 0.0 0.00 0.00 0.00 87 1017.2
20260507103937 52 338 0.0 0.0 0.00 0.00 0.00 87 1017.1
20260507103410 52 334 0.0 1.0 0.00 0.00 0.00 87 1017.1
20260507102859 52 334 0.0 1.0 0.00 0.00 0.00 87 1017.1
20260507102338 51 15 0.0 0.0 0.00 0.00 0.00 87 1016.9
20260507101803 51 16 0.0 0.0 0.00 0.00 0.00 87 1016.9
20260507101238 51 16 0.0 0.0 0.00 0.00 0.00 87 1016.9
20260507100735 51 16 0.0 0.0 0.00 0.00 0.00 86 1017.0
20260507100435 51 16 0.0 0.0 0.00 0.00 0.00 86 1016.9
20260507095645 51 15 0.0 0.0 0.00 0.00 0.00 86 1016.8
20260507095118 51 16 0.0 0.0 0.00 0.00 0.00 85 1016.8
20260507094837 52 16 0.0 0.0 0.00 0.00 0.00 85 1016.7
20260507094335 52 16 0.0 0.0 0.00 0.00 0.00 85 1016.7
20260507093604 52 16 0.0 0.0 0.00 0.00 0.00 84 1016.7
20260507093102 53 16 0.0 0.0 0.00 0.00 0.00 84 1016.6
20260507092558 53 16 0.0 0.0 0.00 0.00 0.00 85 1016.6
20260507092054 53 15 0.0 0.0 0.00 0.00 0.00 84 1016.6
20260507091531 53 16 0.0 0.0 0.00 0.00 0.00 85 1016.6
20260507090959 53 16 0.0 0.0 0.00 0.00 0.00 84 1016.5
20260507090452 53 16 0.0 0.0 0.00 0.00 0.00 84 1016.6
20260507085951 53 15 0.0 0.0 0.00 0.00 0.00 84 1016.5
20260507085425 53 16 0.0 1.0 0.00 0.00 0.00 84 1016.5
20260507085120 53 16 0.0 1.0 0.00 0.00 0.00 84 1016.5
20260507084617 53 16 0.0 0.0 0.00 0.00 0.00 83 1016.3
20260507083828 54 15 0.0 3.0 0.00 0.00 0.00 83 1016.4
20260507083321 54 16 0.0 3.0 0.00 0.00 0.00 84 1016.4
20260507082820 54 349 0.0 1.0 0.00 0.00 0.00 84 1016.5
20260507082311 54 349 0.0 1.0 0.00 0.00 0.00 84 1016.4
20260507082301 54 347 0.0 1.0 0.00 0.00 0.00 84 1016.4
20260507081239 54 338 0.0 3.0 0.00 0.00 0.00 84 1016.2
20260507080739 54 6 0.0 2.0 0.00 0.00 0.00 84 1016.2
20260507080235 54 101 0.0 4.0 0.00 0.00 0.00 84 1016.1
20260507075732 54 143 1.0 4.0 0.00 0.00 0.00 84 1016.0
20260507075434 54 70 1.0 6.0 0.00 0.00 0.00 84 1016.0
20260507074638 55 17 1.0 6.0 0.00 0.00 0.00 84 1016.0
20260507074141 55 13 1.0 5.0 0.00 0.00 0.00 84 1015.9
20260507073825 55 340 1.0 4.0 0.00 0.00 0.00 83 1015.9
20260507073326 55 15 1.0 4.0 0.00 0.00 0.00 83 1015.9
20260507072536 55 348 2.0 6.0 0.00 0.00 0.00 83 1015.8
20260507072007 55 349 2.0 6.0 0.00 0.00 0.00 83 1016.0
20260507071734 55 9 1.0 5.0 0.00 0.00 0.00 83 1015.9
20260507071000 55 325 0.0 4.0 0.00 0.00 0.00 83 1016.0
20260507070457 55 6 0.0 3.0 0.00 0.00 0.00 83 1016.0
20260507065949 55 330 0.0 3.0 0.00 0.00 0.00 83 1016.1
20260507065713 55 31 0.0 4.0 0.00 0.00 0.00 83 1016.0
20260507064945 55 19 0.0 3.0 0.00 0.00 0.00 82 1016.0
20260507064439 55 355 0.0 2.0 0.00 0.00 0.00 82 1015.9
20260507063937 55 19 0.0 2.0 0.00 0.00 0.00 82 1015.8
20260507063408 55 356 0.0 2.0 0.00 0.00 0.00 81 1015.9
20260507062904 55 359 1.0 2.0 0.00 0.00 0.00 81 1015.8
20260507062339 56 6 1.0 3.0 0.00 0.00 0.00 81 1015.8
20260507061815 56 27 0.0 3.0 0.00 0.00 0.00 80 1015.7
20260507061246 56 83 0.0 4.0 0.00 0.00 0.00 80 1015.8
20260507060743 56 68 0.0 4.0 0.00 0.00 0.00 80 1015.7
20260507060510 56 9 0.0 5.0 0.00 0.00 0.00 79 1015.6
20260507055936 56 338 0.0 5.0 0.00 0.00 0.00 79 1015.7
20260507055210 56 82 0.0 4.0 0.00 0.00 0.00 79 1015.7
20260507054708 56 41 0.0 5.0 0.00 0.00 0.00 78 1015.7
20260507054206 56 59 0.0 5.0 0.00 0.00 0.00 78 1015.7
20260507053638 57 359 1.0 6.0 0.00 0.00 0.00 77 1015.7
20260507053111 57 63 1.0 6.0 0.00 0.00 0.00 77 1015.7
20260507052607 57 340 1.0 4.0 0.00 0.00 0.00 77 1015.8
20260507052103 57 89 1.0 4.0 0.00 0.00 0.00 77 1015.9
20260507051554 57 82 1.0 4.0 0.00 0.00 0.00 77 1015.9
20260507051053 57 46 1.0 3.0 0.00 0.00 0.00 77 1015.9
20260507050524 57 304 1.0 7.0 0.00 0.00 0.00 77 1015.9
20260507050022 58 14 1.0 7.0 0.00 0.00 0.00 77 1015.8
20260507045502 58 339 1.0 6.0 0.00 0.00 0.00 78 1015.8
20260507045002 58 60 1.0 7.0 0.00 0.00 0.00 77 1015.8
20260507044443 58 60 1.0 7.0 0.00 0.00 0.00 77 1015.8
20260507043941 58 336 1.0 7.0 0.00 0.00 0.00 77 1016.0
20260507043417 58 316 1.0 4.0 0.00 0.00 0.00 77 1015.9
20260507042850 58 264 1.0 3.0 0.00 0.00 0.00 77 1016.0
20260507042345 58 333 0.0 3.0 0.00 0.00 0.00 76 1016.2
20260507041843 58 16 0.0 3.0 0.00 0.00 0.00 76 1016.2
20260507041342 59 6 0.0 3.0 0.00 0.00 0.00 76 1016.3
20260507040814 59 351 1.0 5.0 0.00 0.00 0.00 76 1016.4
20260507040256 59 29 1.0 5.0 0.00 0.00 0.00 75 1016.3
20260507035734 59 329 2.0 6.0 0.00 0.00 0.00 75 1016.3
20260507035215 59 43 2.0 8.0 0.00 0.00 0.00 75 1016.3
20260507034718 59 6 2.0 8.0 0.00 0.00 0.00 75 1016.2
20260507034200 59 41 3.0 9.0 0.00 0.00 0.00 75 1016.3
20260507033643 59 36 3.0 9.0 0.00 0.00 0.00 75 1016.3
20260507033126 59 358 3.0 8.0 0.00 0.00 0.00 75 1016.1
20260507032628 59 359 3.0 7.0 0.00 0.00 0.00 75 1016.0
20260507032110 59 44 3.0 8.0 0.00 0.00 0.00 75 1015.9
20260507031553 59 12 2.0 7.0 0.00 0.00 0.00 75 1015.9
20260507031239 59 5 2.0 5.0 0.00 0.00 0.00 75 1015.9
20260507030505 59 0 2.0 6.0 0.00 0.00 0.00 75 1015.8
20260507030158 59 8 3.0 9.0 0.00 0.00 0.00 75 1015.6
20260507025433 59 324 3.0 9.0 0.00 0.00 0.00 75 1015.5
20260507025213 59 61 2.0 7.0 0.00 0.00 0.00 76 1015.4
20260507025118 59 10 2.0 6.0 0.00 0.00 0.00 76 1015.4
20260507023910 59 335 1.0 6.0 0.00 0.00 0.00 77 1015.3
20260507023344 59 345 1.0 5.0 0.00 0.00 0.00 77 1015.2
20260507022820 59 103 1.0 5.0 0.00 0.00 0.00 77 1015.2
20260507022255 59 80 1.0 5.0 0.00 0.00 0.00 77 1014.9
20260507021734 59 70 2.0 7.0 0.00 0.00 0.00 77 1014.9
20260507021450 59 68 2.0 7.0 0.00 0.00 0.00 77 1014.8
20260507020729 59 27 2.0 9.0 0.00 0.00 0.00 78 1014.8
20260507020203 59 68 3.0 9.0 0.00 0.00 0.00 78 1014.7
20260507015858 59 26 3.0 13.0 0.00 0.00 0.00 78 1014.6
20260507015111 59 323 2.0 8.0 0.00 0.00 0.00 78 1014.5
20260507014607 59 76 3.0 11.0 0.00 0.00 0.00 77 1014.4
20260507014103 59 335 4.0 11.0 0.00 0.00 0.00 77 1014.2
20260507013822 59 34 4.0 10.0 0.00 0.00 0.00 77 1014.1
20260507013052 59 24 3.0 10.0 0.00 0.00 0.00 77 1014.0
20260507012548 59 323 3.0 10.0 0.00 0.00 0.00 78 1014.0
20260507012050 59 15 2.0 10.0 0.00 0.00 0.00 78 1013.8
20260507011523 59 19 3.0 8.0 0.00 0.00 0.00 78 1013.7
20260507011239 59 1 2.0 8.0 0.00 0.00 0.00 78 1013.6
20260507010516 59 1 2.0 8.0 0.00 0.00 0.00 78 1013.5
20260507010208 59 25 3.0 9.0 0.00 0.00 0.00 78 1013.6
20260507005706 59 337 3.0 9.0 0.00 0.00 0.00 79 1013.6
20260507004941 59 354 2.0 7.0 0.00 0.00 0.00 79 1013.6
20260507004703 59 6 1.0 4.0 0.00 0.00 0.00 80 1013.6
20260507003914 59 286 0.0 3.0 0.00 0.00 0.00 80 1013.4
20260507003345 59 295 1.0 4.0 0.00 0.00 0.00 80 1013.4
20260507002844 59 38 1.0 4.0 0.00 0.00 0.00 80 1013.3
20260507002317 59 338 1.0 4.0 0.00 0.00 0.00 79 1013.3
20260507001813 59 67 1.0 4.0 0.00 0.00 0.00 79 1013.3
20260507001309 59 63 2.0 8.0 0.00 0.00 0.00 79 1013.2
20260507000807 59 11 3.0 9.0 0.00 0.00 0.00 78 1013.0
20260507000306 59 296 3.0 9.0 0.00 0.00 0.00 78 1013.0
20260506235741 59 342 3.0 9.0 0.00 0.00 0.00 78 1012.9
20260506235215 59 322 2.0 6.0 0.00 0.00 0.00 78 1013.1
20260506234650 59 79 1.0 7.0 0.00 0.00 0.00 78 1013.1
20260506234416 59 1 1.0 7.0 0.00 0.00 0.00 77 1013.1
20260506233647 59 359 3.0 11.0 0.00 0.00 0.00 77 1013.1
20260506233150 59 352 3.0 11.0 0.00 0.00 0.00 76 1013.0
20260506232646 59 39 2.0 9.0 0.00 0.00 0.00 77 1012.9
20260506232149 59 357 3.0 8.0 0.00 0.00 0.00 77 1012.8
20260506231619 59 302 3.0 9.0 0.00 0.00 0.00 76 1012.7
20260506231118 59 344 3.0 7.0 0.00 0.00 0.00 77 1012.7
20260506230614 59 24 3.0 8.0 0.00 0.00 0.00 77 1012.8
20260506230337 59 341 3.0 6.0 0.00 0.00 0.00 78 1012.4
20260506225607 59 79 3.0 8.0 0.00 0.00 0.00 78 1012.4
20260506225107 59 335 2.0 6.0 0.00 0.00 0.00 78 1012.5
20260506224537 59 4 2.0 6.0 0.00 0.00 0.00 78 1012.7
20260506224036 59 36 3.0 8.0 0.00 0.00 0.00 78 1012.8
20260506223512 58 327 4.0 9.0 0.00 0.00 0.00 78 1012.7
20260506222941 58 8 4.0 9.0 0.00 0.00 0.00 78 1012.7
20260506222439 58 58 4.0 10.0 0.00 0.00 0.00 78 1012.7
20260506221915 58 30 4.0 10.0 0.00 0.00 0.00 78 1012.6
20260506221352 58 307 4.0 10.0 0.00 0.00 0.00 79 1012.4
20260506221112 58 27 4.0 11.0 0.00 0.00 0.00 79 1012.0
20260506220349 58 13 4.0 11.0 0.00 0.00 0.00 79 1012.0
20260506215849 58 314 3.0 8.0 0.00 0.00 0.00 79 1012.2
20260506215351 59 46 2.0 7.0 0.00 0.00 0.00 79 1012.2
20260506214826 59 36 2.0 7.0 0.00 0.00 0.00 77 1012.3
20260506214257 59 328 2.0 8.0 0.00 0.00 0.00 77 1012.1
20260506214023 60 22 3.0 8.0 0.00 0.00 0.00 75 1012.5
20260506213517 60 300 3.0 9.0 0.00 0.00 0.00 73 1012.3
20260506212751 60 4 2.0 9.0 0.00 0.00 0.00 73 1012.2
20260506212222 60 351 2.0 6.0 0.00 0.00 0.00 73 1012.2
20260506211718 60 7 2.0 6.0 0.00 0.00 0.00 73 1012.3
20260506211151 60 38 2.0 6.0 0.00 0.00 0.00 74 1012.4
20260506210645 60 55 3.0 6.0 0.00 0.00 0.00 74 1012.2
20260506210406 60 316 3.0 9.0 0.00 0.00 0.00 73 1012.5
20260506205635 60 330 3.0 9.0 0.00 0.00 0.00 73 1012.5
20260506205133 60 341 3.0 9.0 0.00 0.00 0.00 74 1012.4
20260506204832 60 11 4.0 9.0 0.00 0.00 0.00 74 1012.6
20260506204039 60 353 4.0 8.0 0.00 0.00 0.00 73 1012.6
20260506203538 60 65 3.0 8.0 0.00 0.00 0.00 73 1012.7
20260506203013 60 23 2.0 8.0 0.00 0.00 0.00 75 1012.6
20260506202702 60 23 3.0 9.0 0.00 0.00 0.00 76 1012.7
20260506201942 59 29 3.0 9.0 0.00 0.00 0.00 76 1012.9
20260506201639 59 35 2.0 7.0 0.00 0.00 0.00 76 1013.1
20260506201111 59 309 2.0 6.0 0.00 0.00 0.00 75 1013.1
20260506200344 59 13 2.0 7.0 0.00 0.00 0.00 75 1013.4
20260506195841 59 44 3.0 7.0 0.00 0.00 0.00 74 1013.2
20260506195337 60 51 3.0 7.0 0.00 0.00 0.00 76 1012.8
20260506194831 59 31 2.0 7.0 0.00 0.00 0.00 79 1012.6
20260506194329 58 315 2.0 5.0 0.00 0.00 0.00 80 1012.7
20260506194247 58 18 2.0 5.0 0.00 0.00 0.00 79 1013.0
20260506193259 57 352 2.0 5.0 0.00 0.00 0.00 79 1013.0
20260506192758 57 14 1.0 6.0 0.00 0.00 0.00 79 1013.3
20260506192253 57 40 1.0 6.0 0.00 0.00 0.00 80 1013.5
20260506191752 57 315 2.0 7.0 0.00 0.00 0.00 80 1013.5
20260506191225 57 334 2.0 7.0 0.00 0.00 0.00 79 1013.4
20260506190726 57 15 2.0 6.0 0.00 0.00 0.00 80 1013.3
20260506190418 57 345 2.0 6.0 0.00 0.00 0.00 80 1013.2
20260506185653 57 30 2.0 6.0 0.00 0.00 0.00 80 1013.2
20260506185123 56 6 2.0 5.0 0.00 0.00 0.00 80 1013.4
20260506184619 56 23 1.0 7.0 0.00 0.00 0.00 80 1013.2
20260506184120 56 10 2.0 7.0 0.00 0.00 0.00 80 1013.1
20260506183551 56 347 2.0 7.0 0.00 0.00 0.00 80 1012.8
20260506183049 56 12 3.0 10.0 0.00 0.00 0.00 80 1012.6
20260506182523 56 41 4.0 10.0 0.00 0.00 0.00 82 1012.2
20260506182022 56 25 5.0 12.0 0.00 0.00 0.00 82 1012.0
20260506181453 56 39 4.0 12.0 0.00 0.00 0.00 82 1011.7
20260506180952 56 322 5.0 10.0 0.00 0.00 0.00 82 1011.6
20260506180912 55 7 6.0 13.0 0.00 0.00 0.00 82 1011.6
20260506175857 55 328 6.0 13.0 0.00 0.00 0.00 82 1011.5
20260506175354 55 356 5.0 13.0 0.00 0.00 0.00 83 1012.0
20260506174830 55 337 4.0 12.0 0.00 0.00 0.00 83 1012.3
20260506174305 55 11 4.0 9.0 0.00 0.00 0.00 85 1012.4
20260506174004 55 356 2.0 9.0 0.00 0.00 0.00 87 1012.5
20260506173220 55 329 1.0 6.0 0.00 0.00 0.00 88 1012.9
20260506172703 54 345 2.0 9.0 0.00 0.00 0.00 88 1013.2
20260506172425 53 87 4.0 10.0 0.00 0.00 0.00 88 1013.1
20260506171701 53 63 3.0 10.0 0.00 0.00 0.00 89 1013.2
20260506171205 53 326 3.0 8.0 0.00 0.00 0.00 89 1013.3
20260506170638 53 6 4.0 14.0 0.00 0.00 0.00 89 1013.3
20260506170112 53 35 5.0 14.0 0.00 0.00 0.00 89 1012.6
20260506165609 53 342 4.0 10.0 0.00 0.00 0.00 89 1012.7
20260506165107 53 14 4.0 9.0 0.00 0.00 0.00 89 1013.0
20260506164814 53 41 3.0 8.0 0.00 0.00 0.00 89 1013.0
20260506164052 54 33 2.0 8.0 0.00 0.00 0.00 89 1013.1
20260506163529 54 5 2.0 8.0 0.00 0.00 0.00 88 1013.2
20260506162959 54 28 2.0 5.0 0.00 0.00 0.00 89 1013.3
20260506162720 54 333 1.0 5.0 0.00 0.00 0.00 89 1013.3
20260506161958 55 68 0.0 2.0 0.00 0.00 0.00 89 1013.4
20260506161451 54 66 0.0 4.0 0.00 0.00 0.00 89 1013.3
20260506160953 54 68 0.0 4.0 0.00 0.00 0.00 89 1013.3
20260506160437 54 108 0.0 3.0 0.00 0.00 0.00 89 1013.5
20260506160202 53 357 1.0 14.0 0.00 0.00 0.00 89 1013.4
20260506155417 53 11 1.0 14.0 0.00 0.00 0.00 88 1012.9
20260506154851 52 14 4.0 15.0 0.00 0.00 0.00 86 1013.5
20260506154352 52 335 5.0 15.0 0.00 0.00 0.00 85 1012.0
20260506153826 53 325 2.0 9.0 0.00 0.00 0.00 83 1013.9
20260506153528 54 349 1.0 19.0 0.00 0.00 0.00 80 1014.6
20260506152740 54 267 1.0 19.0 0.00 0.00 0.00 79 1015.0
20260506152242 54 94 2.0 6.0 0.00 0.00 0.00 78 1014.7
20260506151715 54 351 3.0 10.0 0.00 0.00 0.00 79 1014.1
20260506151157 54 52 3.0 10.0 0.00 0.00 0.00 79 1013.8
20260506150630 54 33 3.0 9.0 0.00 0.00 0.00 79 1013.4
20260506150058 54 6 4.0 10.0 0.00 0.00 0.00 78 1013.3
20260506145057 54 309 4.0 11.0 0.00 0.00 0.00 77 1012.8
20260506144556 54 18 3.0 9.0 0.00 0.00 0.00 76 1013.0
20260506144034 54 326 3.0 9.0 0.00 0.00 0.00 77 1013.6
20260506143531 54 15 3.0 9.0 0.00 0.00 0.00 77 1013.5
20260506143231 54 6 3.0 10.0 0.00 0.00 0.00 77 1013.0
20260506142445 54 334 4.0 10.0 0.00 0.00 0.00 77 1012.9